Bluewater, NM

5:29 PM MDT on September 25, 2016 (GMT -0600)
Grants-Milan Municipal

Weather History for KGNT - October, 2013

Change the Weather History Date:

Sunday, October 6, 2013

  Actual Average Record
Temperature  
Mean Temperature 46 °F -  
Max Temperature 69 °F 74 °F 87 °F (1979)
Min Temperature 23 °F 37 °F 19 °F (1998)
Degree Days  
Heating Degree Days 19    
Moisture  
Dew Point 16 °F    
Average Humidity 41    
Maximum Humidity 80    
Minimum Humidity 8    
Precipitation  
Precipitation 0.00 in - - ()
Sea Level Pressure  
Sea Level Pressure 30.38 in    
Wind  
Wind Speed 6 mph (NNW)    
Max Wind Speed 13 mph    
Max Gust Speed 18 mph    
Visibility 10 miles    
Events      
Averages and records for this station are not official NWS values.
T = Trace of Precipitation, MM = Missing Value Source: NWS Daily Summary

Daily Weather History Graph

Daily Weather History Graph

Search for Another Location

Airport or City:

Trip Planner

Search our weather history database for the weather conditions in past years. The results will help you decide how hot, cold, wet, or windy it might be!

Date:

Astronomy

Oct. 06, 2013 Rise Set
Actual Time 7:10 AM MDT 6:48 PM MDT
Civil Twilight 6:45 AM MDT 7:13 PM MDT
Nautical Twilight 6:15 AM MDT 7:42 PM MDT
Astronomical Twilight 5:46 AM MDT 8:12 PM MDT
Moon 8:53 AM MDT (10/6) 7:55 PM MDT (10/6)
Length of Visible Light 12h 28m
Length of Day
11h 37m
Waxing Crescent, 4% of the Moon is Illuminated
Oct 6
Waxing Crescent
Oct 11
First Quarter
Oct 18
Full
Oct 26
Last Quarter
Nov 3
New

Hourly Weather History & Observations

Time (MDT) Temp. Windchill Dew Point Humidity Pressure Visibility Wind Dir Wind Speed Gust Speed Precip Events Conditions
12:15 AM 35.4 °F 30.5 °F 16.7 °F 47% 30.40 in 10.0 mi North 5.8 mph - N/A   Clear
12:35 AM 32.5 °F 27.1 °F 17.6 °F 54% 30.40 in 10.0 mi North 5.8 mph - N/A   Clear
12:55 AM 28.9 °F 22.8 °F 18.7 °F 66% 30.40 in 10.0 mi NNW 5.8 mph - N/A   Clear
1:15 AM 28.6 °F 22.4 °F 18.7 °F 66% 30.40 in 10.0 mi NNW 5.8 mph - N/A   Clear
1:35 AM 29.1 °F - 18.1 °F 64% 30.40 in 10.0 mi Calm Calm - N/A   Clear
1:55 AM 31.8 °F 28.5 °F 18.1 °F 57% 30.40 in 10.0 mi North 3.5 mph - N/A   Clear
2:15 AM 30.6 °F 27.1 °F 17.1 °F 57% 30.40 in 10.0 mi NNW 3.5 mph - N/A   Clear
2:35 AM 26.6 °F 22.6 °F 18.3 °F 71% 30.40 in 10.0 mi NW 3.5 mph - N/A   Clear
2:55 AM 27.9 °F 21.5 °F 18.9 °F 69% 30.40 in 10.0 mi NW 5.8 mph - N/A   Clear
3:15 AM 27.1 °F 17.5 °F 18.3 °F 69% 30.40 in 10.0 mi NW 10.4 mph - N/A   Clear
3:35 AM 26.1 °F 20.5 °F 18.3 °F 73% 30.40 in 10.0 mi NNW 4.6 mph - N/A   Clear
3:55 AM 24.6 °F 17.7 °F 18.3 °F 77% 30.40 in 10.0 mi North 5.8 mph - N/A   Clear
4:15 AM 25.2 °F 16.5 °F 18.5 °F 76% 30.40 in 10.0 mi NW 8.1 mph - N/A   Clear
4:35 AM 24.8 °F 19.1 °F 18.3 °F 76% 30.40 in 10.0 mi NW 4.6 mph - N/A   Clear
4:55 AM 26.2 °F 20.7 °F 18.5 °F 73% 30.40 in 10.0 mi NW 4.6 mph - N/A   Clear
5:15 AM 23.7 °F 19.3 °F 17.6 °F 77% 30.40 in 10.0 mi NNW 3.5 mph - N/A   Clear
5:35 AM 24.8 °F 20.5 °F 18.7 °F 78% 30.40 in 10.0 mi NW 3.5 mph - N/A   Clear
5:55 AM 25.7 °F 17.1 °F 18.3 °F 74% 30.40 in 10.0 mi NW 8.1 mph - N/A   Clear
6:15 AM 25.9 °F 16.0 °F 18.5 °F 74% 30.40 in 10.0 mi NW 10.4 mph - N/A   Clear
6:35 AM 25.9 °F 17.4 °F 18.5 °F 74% 30.41 in 10.0 mi NW 8.1 mph - N/A   Clear
6:55 AM 25.5 °F 18.7 °F 18.1 °F 74% 30.41 in 10.0 mi NW 5.8 mph - N/A   Clear
7:15 AM 23.4 °F 16.2 °F 18.0 °F 80% 30.41 in 10.0 mi NW 5.8 mph - N/A   Clear
7:35 AM 24.1 °F 16.0 °F 18.3 °F 79% 30.42 in 10.0 mi WNW 6.9 mph - N/A   Clear
7:55 AM 26.8 °F 16.5 °F 19.0 °F 73% 30.42 in 10.0 mi NW 11.5 mph - N/A   Clear
8:15 AM 29.3 °F 20.8 °F 19.6 °F 67% 30.43 in 10.0 mi NW 9.2 mph - N/A   Clear
8:35 AM 32.0 °F 24.8 °F 19.2 °F 59% 30.43 in 10.0 mi NNW 8.1 mph - N/A   Clear
8:55 AM 34.7 °F 28.1 °F 19.0 °F 53% 30.43 in 10.0 mi NNW 8.1 mph - N/A   Clear
9:15 AM 37.8 °F 32.5 °F 19.6 °F 48% 30.43 in 10.0 mi NNW 6.9 mph - N/A   Clear
9:35 AM 41.4 °F 36.2 °F 20.1 °F 43% 30.43 in 10.0 mi NW 8.1 mph - N/A   Clear
9:55 AM 44.6 °F 41.4 °F 19.2 °F 36% 30.43 in 10.0 mi NNW 5.8 mph - N/A   Clear
10:15 AM 49.5 °F - 16.7 °F 27% 30.43 in 10.0 mi North 9.2 mph - N/A   Clear
10:35 AM 50.9 °F - 16.9 °F 26% 30.43 in 10.0 mi North 9.2 mph - N/A   Clear
10:55 AM 52.7 °F - 17.2 °F 25% 30.42 in 10.0 mi NNW 4.6 mph - N/A   Clear
11:15 AM 54.9 °F - 13.8 °F 20% 30.42 in 10.0 mi North 11.5 mph - N/A   Clear
11:35 AM 56.3 °F - 14.4 °F 19% 30.40 in 10.0 mi North 10.4 mph - N/A   Clear
11:55 AM 57.7 °F - 15.6 °F 19% 30.40 in 10.0 mi NNW 10.4 mph 16.1 mph N/A   Clear
12:15 PM 59.7 °F - 15.4 °F 18% 30.40 in 10.0 mi NNE 8.1 mph - N/A   Clear
12:35 PM 61.0 °F - 13.3 °F 15% 30.39 in 10.0 mi NNE 5.8 mph - N/A   Clear
12:55 PM 62.2 °F - 14.9 °F 16% 30.38 in 10.0 mi NW 6.9 mph - N/A   Clear
1:15 PM 63.9 °F - 14.4 °F 15% 30.37 in 10.0 mi North 8.1 mph - N/A   Clear
1:35 PM 65.5 °F - 14.4 °F 14% 30.35 in 10.0 mi North 9.2 mph - N/A   Clear
1:55 PM 65.7 °F - 10.9 °F 12% 30.35 in 10.0 mi NNW 5.8 mph - N/A   Clear
2:15 PM 66.9 °F - 9.5 °F 11% 30.34 in 10.0 mi North 6.9 mph 18.4 mph N/A   Clear
2:35 PM 67.1 °F - 9.7 °F 11% 30.34 in 10.0 mi North 10.4 mph - N/A   Clear
2:55 PM 67.8 °F - 9.3 °F 10% 30.32 in 10.0 mi NNW 5.8 mph 10.4 mph N/A   Clear
3:15 PM 69.4 °F - 7.9 °F 9% 30.32 in 10.0 mi North 9.2 mph 16.1 mph N/A   Clear
3:35 PM 68.0 °F - 6.6 °F 9% 30.32 in 10.0 mi NW 6.9 mph - N/A   Clear
3:55 PM 69.6 °F - 5.4 °F 8% 30.32 in 10.0 mi NNE 8.1 mph - N/A   Clear
4:15 PM 69.1 °F - 4.5 °F 8% 30.32 in 10.0 mi North 12.7 mph 16.1 mph N/A   Clear
4:35 PM 68.7 °F - 5.2 °F 8% 30.32 in 10.0 mi North 9.2 mph 17.3 mph N/A   Clear
4:55 PM 68.2 °F - 5.9 °F 9% 30.32 in 10.0 mi NNE 11.5 mph - N/A   Clear
5:15 PM 67.5 °F - 7.2 °F 9% 30.32 in 10.0 mi North 8.1 mph - N/A   Clear
5:35 PM 66.7 °F - 10.4 °F 11% 30.33 in 10.0 mi NNW 8.1 mph - N/A   Clear
5:55 PM 65.8 °F - 12.2 °F 12% 30.33 in 10.0 mi North 8.1 mph - N/A   Clear
6:15 PM 64.4 °F - 12.7 °F 13% 30.33 in 10.0 mi NNE 9.2 mph - N/A   Clear
6:35 PM 62.2 °F - 13.6 °F 15% 30.34 in 10.0 mi NNE 8.1 mph - N/A   Clear
6:55 PM 59.0 °F - 14.2 °F 17% 30.34 in 10.0 mi North 3.5 mph - N/A   Clear
7:15 PM 52.2 °F - 18.3 °F 26% 30.34 in 10.0 mi Calm Calm - N/A   Clear
7:35 PM 50.0 °F - 20.1 °F 31% 30.34 in 10.0 mi WNW 5.8 mph - N/A   Clear
7:55 PM 49.6 °F - 19.2 °F 30% 30.35 in 10.0 mi WNW 5.8 mph - N/A   Clear
8:15 PM 49.3 °F - 19.0 °F 30% 30.36 in 10.0 mi WNW 8.1 mph - N/A   Clear
8:35 PM 49.1 °F - 18.3 °F 30% 30.36 in 10.0 mi NW 6.9 mph - N/A   Clear
8:55 PM 44.4 °F 42.0 °F 19.2 °F 37% 30.37 in 10.0 mi West 4.6 mph - N/A   Clear
9:15 PM 42.8 °F 38.6 °F 19.4 °F 39% 30.37 in 10.0 mi West 6.9 mph - N/A   Clear
9:35 PM 42.8 °F - 18.9 °F 38% 30.38 in 10.0 mi Calm Calm - N/A   Clear
9:55 PM 42.8 °F - 17.4 °F 36% 30.38 in 10.0 mi Calm Calm - N/A   Clear
10:15 PM 38.5 °F - 18.9 °F 45% 30.38 in 10.0 mi Calm Calm - N/A   Clear
10:35 PM 34.7 °F 31.8 °F 19.6 °F 54% 30.38 in 10.0 mi West 3.5 mph - N/A   Clear
10:55 PM 35.4 °F 32.6 °F 20.3 °F 54% 30.38 in 10.0 mi NNW 3.5 mph - N/A   Clear
11:15 PM 36.0 °F 33.3 °F 21.7 °F 56% 30.38 in 10.0 mi WNW 3.5 mph - N/A   Clear
11:35 PM 36.7 °F 32.0 °F 20.1 °F 51% 30.38 in 10.0 mi NW 5.8 mph - N/A   Clear
11:55 PM 37.4 °F 32.1 °F 21.0 °F 52% 30.38 in 10.0 mi WNW 6.9 mph - N/A   Clear